Regional Weather Roundup
Issued by NWS Mobile, AL

Home | Current Version | Previous Version | Text Only | Print | Product List | Glossary On
Versions: 1 2 3 4 5 6 7 8 9 10 11 12 13 14 15 16 17 18 19 20 21 22 23 24 25 26 27 28 29 30 31 32 33 34 35 36 37 38 39 40 41 42 43 44 45 46 47 48 49 50
993
ASUS44 KMOB 261412
RWRMOB
REGIONAL WEATHER ROUNDUP
NATIONAL WEATHER SERVICE MOBILE AL
900 AM CDT MON SEP 26 2016

NOTE: "FAIR" INDICATES FEW OR NO CLOUDS BELOW 12,000 FEET WITH NO
      SIGNIFICANT WEATHER AND/OR OBSTRUCTIONS TO VISIBILITY.

  * THESE STATIONS ARE PART OF THE UNIVERSITY OF SOUTH ALABAMA
    MESONET AND ARE NOT UNDER NWS OR FAA QUALITY CONTROL.

ALZ061>064-261500-
COASTAL ALABAMA

CITY           SKY/WX    TMP DP  RH WIND       PRES   REMARKS
MOBILE REG APT MOSUNNY   77  71  82 NW3       30.04R
BROOKLEY FIELD SUNNY     79  71  76 NE3       30.04R
USA CAMPUS*    NOT AVBL
DOG RIVER*     NOT AVBL


CITY           SKY/WX    TMP DP  RH WIND       PRES   REMARKS
MOUNT VERNON*  NOT AVBL
SARALAND*      NOT AVBL
BAY MINETTE*   NOT AVBL
LOXLEY*        NOT AVBL
ROBERTSDALE*   NOT AVBL
FAIRHOPE*      NOT AVBL
ELBERTA*       NOT AVBL
FOLEY*         NOT AVBL
GRAND BAY*     NOT AVBL
DAUPHIN ISLND* NOT AVBL
BON SCOUR NWR* NOT AVBL
GULF SHORES    MOSUNNY   75  74  96 N8        30.02S

$$

ALZ051>060-261500-
INTERIOR SOUTHWEST AND SOUTH CENTRAL ALABAMA

CITY           SKY/WX    TMP DP  RH WIND       PRES   REMARKS
GREENVILLE     NOT AVBL
EVERGREEN      SUNNY     75  70  84 CALM      30.04R
CASTLEBERRY*   NOT AVBL
ATMORE*        NOT AVBL
DIXIE*         NOT AVBL
ANDALUSIA/OPP  CLOUDY    81  70  69 E6        30.04R
ANDALUSIA*     NOT AVBL
FLORALA APT    NOT AVBL
FLORALA*       NOT AVBL

$$

FLZ001>006-261500-
WESTERN FLORIDA PANHANDLE

CITY           SKY/WX    TMP DP  RH WIND       PRES   REMARKS
PENSACOLA      SUNNY     78  71  79 CALM      30.01S
NAS PENSACOLA  PTSUNNY   81  74  79 CALM      30.02R THUNDER
MILTON         CLOUDY    74  70  87 CALM      30.03S
WHTNG S FIELD  PTSUNNY   76  71  85 E3        30.03R


CITY           SKY/WX    TMP DP  RH WIND       PRES   REMARKS
WALNUT HILL*   NOT AVBL
JAY*           NOT AVBL
DUKE FIELD     MOSUNNY   77  69  77 E1        30.02R
CRESTVIEW      MOSUNNY   77  70  79 E3        30.05R
VALPARAISO     MOSUNNY   79  70  73 NE5       30.02R
DESTIN         SUNNY     83  74  74 NE5       30.02R

$$

MSZ076-079-261500-
INTERIOR SOUTHEAST MISSISSIPPI

CITY           SKY/WX    TMP DP  RH WIND       PRES   REMARKS
LEAKESVILLE*   NOT AVBL
AGRICOLA*      NOT AVBL

$$

MARINE OBSERVATIONS

STATION/POSITION TIME  TEMP    WIND        PRES    WAVE
                       AIR SEA DIR/SP/G            HT/PER
                 (UTC) (F)     (DEG/KT/KT) (MB)    (FT/S)
PASCAGOULA       1300   79     350/  3/  4 1016.3R
PETIT BOIS ISLND 1300   81     340/  7/  9 1016.9R
GRAND BAY        1245   75     340/  4     1017.0S
KATRINA CUT      1300   82     340/  3     1016.9S
CEDAR POINT      1300   79     360/  5     1016.3R
E DAUPHIN ISLAND 1300   82      40/  3/  4 1016.1R
MIDDLE BAY LIGHT 1300   79      70/  6     1016.6R
USCG MOBILE BAY  1300   76 85   70/  4/  5 1017.0R
STATE DOCKS      1306                      1016.3R
MEAHER PARK      1300   74      60/  1     1016.6R
WEEKS BAY        1200   72                   N/A
FORT MORGAN      1300   81     110/  2/  3 1016.0R
12 S ORANGE BCH  1350   82 86  260/  8/ 10 1016.3S   1
PENSACOLA BAY    1300   77 86   40/  5/  6 1016.4R
64 S DAUPHIN ISL 1300   83 85  350/  4/  6 1015.5R
67 S FORT MORGAN 1330   83      10/  2     1016.3R

$$

SELECTED LOCATIONS ACROSS THE REGION

CITY           SKY/WX    TMP DP  RH WIND       PRES   REMARKS
NEW ORLEANS    MOSUNNY   85  74  69 NW7       30.02S
GULFPORT       SUNNY     81  71  71 CALM      30.01S
PASCAGOULA AP  SUNNY     80  74  81 CALM      30.01F
PASCAGOULA*    NOT AVBL
HATTIESBURG    SUNNY     78  70  76 CALM      30.04S
LAUREL         SUNNY     75  70  83 CALM      30.04S
MERIDIAN       SUNNY     79  70  74 CALM      30.02F
JACKSON        SUNNY     79  70  74 CALM      30.04R
MONTGOMERY     SUNNY     80  67  64 E5        30.05R
TROY           SUNNY     77  70  79 SE7       30.05S
KINSTON*       NOT AVBL
GENEVA*        NOT AVBL
ASHFORD*       NOT AVBL
DOTHAN         SUNNY     79  71  76 E3        30.08R
PANAMA CITY    SUNNY     79  72  78 NE6       30.02R

$$





USA.gov is the U.S. government's official web portal to all federal, state and local government web resources and services.